PokerAstro : Agen Poker Online, Agen DominoBet, Bandar Ceme

Agen Bola, Agen casino, Bandar Bola, Situs Bola

Jackpot

Texas Poker Multi Jackpot System

Kini Telah hadir Jackpot SUPER ROYAL FLUSH

Kini Telah hadir Jackpot 2000 (khusus table VIP keatas).

Ikutilah global jackpot yang tersedia di system kami, dengan system jackpot terbaru dan pertama di indonesia, anda dapat membeli jackpot dengan harga 100 rupiah saja dan menangkan hadiahnya hingga puluhan juta rupiah.

Jackpot bukanlah suatu keharusan untuk dibeli, namun kami memberikan suatu fitur tambahan untuk member tercinta dari www.pokerastro.me.

Terdapat tiga pilihan harga jackpot yang bisa anda beli yaitu :100,500,1000 dan 2000(khusus table VIP Keatas) rupiah.

Hadiah dari Multi jackpot system www.pokerastro.me

  1. full house x 10 harga jackpot yang anda beli.
      (contoh:anda membeli 1000 maka:1000 X10 = 10.000)
  2. four of kind x 250 harga jackpot yang anda beli
      (contoh:anda membeli 1000 maka:1000 X250 = 250.000)
  3. Straight flush x 1200
      (contoh:anda membeli 1000 maka:1000 X1200 = 1.200.000)
  4. Royal flush x 10000 harga jackpot yang anda beli
      (contoh:anda membeli 1000 maka:1000 X10000 = 10.000.000)
  5. SUPER ROYAL FLUSH x 30000 harga jackpot yang anda beli
      (contoh:anda membeli 1000 maka:1000 X30000 = 30.000.000)

Kondisi kartu

  1. full house adalah kondisi kartu dimana kartu anda dan kartu tengah dengan total 7 kartu bisa mendapatkan nilai 5 kartu dengan kombinasi 1 tris(three of kind) dan 1 pair, contoh 3 kartu 10 dan 2 kartu 5
  2. Four of kind adalah kondisi kartu dimana kartu anda dan kartu tengah dengan total 7 kartu bisa mendapatkan nilai 5 kartu dengan kombinasi 4 kartu yang sama jumlah dan 1 kartu apapun juga contoh anda mendapatkan 4 buah kartu angka 3 dan 1 kartu apapun.
  3. Staright flush adalah kondisi kartu dimana kartu anda dan kartu tengah dengan total 7 kartu bisa mendapatkan nilai 5 kartu dengan kombinasi seri / staright dengan kembang yang sama contoh : urutan kartu dari angka 5, 6, 7, 8 , 9 10 dengan kembang yg sama misalnya as hati
  4. Royal flush adalah kondisi kartu dimana kartu anda dan kartu tengah dengan total 7 kartu bisa mendapatkan nilai 5 kartu dengan kombinasi seri / staright dengan kembang yang sama tetapi kartu tersebut haruslah dimulai dari 10. contoh 10, Queen, Jack, King dan aces dengan kembang yang sama
  5. Super Royal flush adalah kondisi kartu dimana Kedua kartu anda digabung dengan 3 kartu pertama meja haruslah royal flush. contoh kartu anda 10,Queen kembang sama dan 3 kartu pertama meja adalah Jack, King dan aces dengan kembang yang sama

Demikian adalah penjelasan dari Multi Jackpot www.pokerastro.me terima kasih dan selamat bermain salam hoki dari kami

Texas Poker Jackpot Winner

TOP SUPER ROYAL FLUSH
No.TanggalNamaPriceWin
125/09 00:17N0AH16Super Royal flush3,000,000
224/09 23:12SAF99Super Royal flush1,500,000
324/09 16:34OPPOF9Super Royal flush30,000,000
424/09 14:33ALL19Super Royal flush6,000,000
524/09 05:39MIFTAHUL42Super Royal flush15,000,000
TOP ROYAL FLUSH
No.TanggalNamaPriceWin
125/09 03:09ALESHAA19Royal flush10,000,000
225/09 02:49PETAVANARoyal flush2,000,000
325/09 02:40MODZ168Royal flush10,000,000
425/09 02:30KITTY208Royal flush10,000,000
525/09 02:26ROBOCUP2Royal flush1,000,000
TOP STRAIGHT FLUSH
No.TanggalNamaPriceWin
125/09 03:09DJNGURAKStraight Flush240,000
225/09 03:09A19DAER99863Straight Flush240,000
325/09 03:08ZEX05Straight Flush240,000
425/09 03:08BALE3111Straight Flush240,000
525/09 03:07NCI15Straight Flush240,000
LATEST JACKPOT
No.TanggalNamaPriceWin
125/09 03:09JARAAA007Full House5,000
225/09 03:09C0FD2BF9Full House2,000
325/09 03:09KHUNTET82Full House2,000
425/09 03:09RD73Full House1,000
525/09 03:09DON997Full House2,000
625/09 03:09AHI888Full House10,000
725/09 03:09SOAK212Full House10,000
825/09 03:09KESY44Full House20,000
925/09 03:09GIEBFBCA1Full House2,000
1025/09 03:09MROMPGFull House2,000
1125/09 03:09PEMBERANI0Full House20,000
1225/09 03:09MUDARQQFull House10,000
1325/09 03:09DERIOKTAFull House1,000
1425/09 03:09NACINB99Full House5,000
1525/09 03:09LEWERNEHFull House2,000
1625/09 03:09STEVEN35Full House10,000
1725/09 03:09HOKIBROOOFull House1,000
1825/09 03:09ALESHAA19Royal flush10,000,000
1925/09 03:09BRG007Full House2,000
2025/09 03:09SENIOR46Full House1,000
2125/09 03:09B365CA9AFull House5,000
2225/09 03:09POCONG86Full House2,000
2325/09 03:09M4SSU475Full House20,000
2425/09 03:09CS7Full House2,000
2525/09 03:09MCDERMMOTFull House1,000
2625/09 03:09BERDIRIYANFull House2,000
2725/09 03:09DIAN3TH4Full House2,000
2825/09 03:09CARRL4Full House5,000
2925/09 03:09DIKA001Full House2,000
3025/09 03:09NAYOG0707Full House500
3125/09 03:09ALLYSAKEYFull House10,000
3225/09 03:09KOMODOACXFull House5,000
3325/09 03:09EIGTHYFull House2,000
3425/09 03:09DB208CBEFull House2,000
3525/09 03:09SRAJAK01Full House20,000
3625/09 03:09SNI46398Full House5,000
3725/09 03:09IPONK001Full House2,000
3825/09 03:09FADLI_90Full House2,000
3925/09 03:09BA90N9Full House1,000
4025/09 03:09AGSFORTUNAFull House2,000
4125/09 03:09LEAKBALYFull House500
4225/09 03:09EDANPISAN7Full House5,000
4325/09 03:09HI0SOKAFull House5,000
4425/09 03:09EBFF6166Four Of A Kind25,000
4525/09 03:09DJNGURAKStraight Flush240,000
4625/09 03:09BO_ROXFull House5,000
4725/09 03:09ALESHAA19Full House10,000
4825/09 03:09A19DAER99863Straight Flush240,000
4925/09 03:09JUAREZ07Full House2,000
5025/09 03:09CHUIWEFull House10,000

Domino Multi Jackpot System

Ikutilah global jackpot yang tersedia di system kami, dengan system jackpot terbaru dan pertama di indonesia, anda dapat membeli jackpot dengan harga 100 rupiah saja dan menangkan hadiahnya hingga puluhan juta rupiah.

Jackpot bukanlah suatu keharusan untuk dibeli, namun kami memberikan suatu fitur tambahan untuk member tercinta dari www.pokerastro.me.

Terdapat tiga pilihan harga jackpot yang bisa anda beli yaitu :100,500 dan 1000 rupiah.

Hadiah dari Multi jackpot system www.pokerastro.me

  1. Murni Kecil x 50 harga jackpot yang anda beli.
      (contoh:anda membeli 1000 maka:1000 X 50 = 50.000)
  2. Murni Besar x 50 harga jackpot yang anda beli
      (contoh:anda membeli 1000 maka:1000 X 50 = 50.000)
  3. BALAK x 100 harga jackpot yang anda beli
      (contoh:anda membeli 1000 maka:1000 X 100 = 100.000)
  4. ENAM DEWA x 6666 harga jackpot yang anda beli
      (contoh:anda membeli 1000 maka:1000 X 6666 = 6.666.000)

Demikian adalah penjelasan dari Multi Jackpot www.pokerastro.me terima kasih dan selamat bermain salam hoki dari kami

Domino Jackpot Winner

TOP ENAM DEWA
No.TanggalNamaPriceWin
125/09 03:00TEMPUYAK90murni enam3,333,000
225/09 02:56MULLAHmurni enam3,333,000
324/09 23:14SUTRIS80murni enam666,600
424/09 22:52LAELADEWImurni enam3,333,000
524/09 22:36DODOR21murni enam666,600
TOP BALAK
No.TanggalNamaPriceWin
125/09 03:06KATMONO99balak50,000
225/09 03:05ZOROK99balak50,000
325/09 03:03B82BEAT2015927balak50,000
425/09 02:54RATUSAN123balak10,000
525/09 02:49S3GAW0Nbalak50,000
LATEST JACKPOT
No.TanggalNamaPriceWin
125/09 03:09PANDI31murni kecil5,000
225/09 03:09DILLA178murni kecil50,000
325/09 03:09C899murni kecil50,000
425/09 03:08ENGINE100murni kecil25,000
525/09 03:08NAMEKEmurni kecil25,000
625/09 03:07BP888002murni besar50,000
725/09 03:06KATMONO99balak50,000
825/09 03:06PEDAREmurni besar50,000
925/09 03:05MUZAKKI22murni besar25,000
1025/09 03:05DESPATITOZmurni kecil25,000
1125/09 03:05ZOROK99balak50,000
1225/09 03:04SARIPANNlucky9925,000
1325/09 03:03ZETANAmurni besar50,000
1425/09 03:03MUDI1145murni kecil50,000
1525/09 03:03B82BEAT2015927balak50,000
1625/09 03:02RASCAL_05murni besar50,000
1725/09 03:01PUKUL9murni kecil5,000
1825/09 03:01KULU3murni besar25,000
1925/09 03:00PT4DSUPARMAN1murni besar50,000
2025/09 03:00TEMPUYAK90murni enam3,333,000
2125/09 02:59KUBUUU21murni besar5,000
2225/09 02:59BP888002murni kecil50,000
2325/09 02:59FRIZKI88murni kecil50,000
2425/09 02:58NI3murni besar50,000
2525/09 02:57GARUGAMUDAmurni besar50,000
2625/09 02:57WIRO12345murni kecil25,000
2725/09 02:57PANTATBUDImurni kecil5,000
2825/09 02:57FATICHAmurni kecil50,000
2925/09 02:57KULI18murni besar50,000
3025/09 02:57KANCIL000lucky992,500
3125/09 02:56RENGKIEmurni besar50,000
3225/09 02:56ISTRI123murni besar50,000
3325/09 02:56MULLAHmurni enam3,333,000
3425/09 02:55B4J4KLAUT9murni kecil25,000
3525/09 02:55LUCKYPANDAlucky99350,000
3625/09 02:54FANGCHIUmurni kecil5,000
3725/09 02:54RATUSAN123balak10,000
3825/09 02:54ARWA666murni besar5,000
3925/09 02:54YOEYOENlucky9910,000
4025/09 02:54WRK30murni besar25,000
4125/09 02:54SYFRIDA88murni besar25,000
4225/09 02:53KOTATUA99murni kecil50,000
4325/09 02:53FROM113murni kecil50,000
4425/09 02:53WIRO12345lucky9925,000
4525/09 02:52BANUN77murni besar50,000
4625/09 02:51RATUSAN123murni besar5,000
4725/09 02:51WS113911lucky9925,000
4825/09 02:51ANINOP66murni besar25,000
4925/09 02:50NAIBAHO15murni kecil50,000
5025/09 02:50SEMA006murni besar5,000

Ceme Multi Jackpot System

Jackpot dilihat dari gabungan kartu pemain dengan kartu bandar. Bandar harus membeli jackpot sebanyak jumlah player yang sedang duduk. Sebagai contoh bila terdapat 3 pemain duduk bermain, dan bandar memutuskan untuk membeli jackpot Rp 1.000, maka pada periode tersebut bandar akan membeli jackpot sebanyak 3xRp1.000 = Rp3.000.

Jackpot bukanlah suatu keharusan untuk dibeli, namun kami memberikan suatu fitur tambahan untuk member tercinta dari www.pokerastro.me.

Terdapat tiga pilihan harga jackpot yang bisa anda beli yaitu :100,500 dan 1000 rupiah.

Hadiah dari Multi jackpot system www.pokerastro.me

  1. Murni Kecil x 50 harga jackpot yang anda beli.
      (contoh:anda membeli 1000 maka:1000 X 50 = 50.000)
  2. Murni Besar x 50 harga jackpot yang anda beli
      (contoh:anda membeli 1000 maka:1000 X 50 = 50.000)
  3. BALAK x 200 harga jackpot yang anda beli
      (contoh:anda membeli 1000 maka:1000 X 200 = 200.000)
  4. ENAM DEWA x 6666 harga jackpot yang anda beli
      (contoh:anda membeli 1000 maka:1000 X 6666 = 6.666.000)

Demikian adalah penjelasan dari Multi Jackpot www.pokerastro.me terima kasih dan selamat bermain salam hoki dari kami

Ceme Jackpot Winner

TOP ENAM DEWA
No.TanggalNamaPriceWin
125/09 03:01BUJANG132murni enam666,600
225/09 03:01OMP4Tmurni enam6,666,000
325/09 02:56ANGG89murni enam666,600
425/09 02:54SISKA1406murni enam6,666,000
525/09 02:54PT290888murni enam666,600
TOP BALAK
No.TanggalNamaPriceWin
125/09 03:08TORETO08balak200,000
225/09 03:07HERU447balak20,000
325/09 03:07DEDENHOKI5balak200,000
425/09 03:07JAL3434balak200,000
525/09 03:06SANGGINGbalak200,000
LATEST JACKPOT
No.TanggalNamaPriceWin
125/09 03:09LAWAK88murni kecil50,000
225/09 03:09NICKO234murni kecil50,000
325/09 03:09RIARICHImurni kecil50,000
425/09 03:09SINAR_007murni kecil50,000
525/09 03:09MADA212murni kecil50,000
625/09 03:09FEBYHPmurni kecil50,000
725/09 03:09VEGARR1993murni kecil50,000
825/09 03:08KEVINPASHAmurni besar25,000
925/09 03:08SHINTA_23murni besar50,000
1025/09 03:08VANOEmurni besar25,000
1125/09 03:08TORE16murni kecil50,000
1225/09 03:08BONCU33murni kecil50,000
1325/09 03:08HRP561978murni besar50,000
1425/09 03:08JPSELOWmurni besar5,000
1525/09 03:08YOU136murni kecil5,000
1625/09 03:08TREMOS99murni kecil50,000
1725/09 03:08VEGARR1993murni besar50,000
1825/09 03:08JACKPOT4Dmurni besar25,000
1925/09 03:08TORETO08balak200,000
2025/09 03:07HERU447balak20,000
2125/09 03:07BUKUINTAmurni besar50,000
2225/09 03:07GOCRING11murni kecil50,000
2325/09 03:07RUS12murni kecil5,000
2425/09 03:07LEMKAmurni besar50,000
2525/09 03:07UNTUNKK99murni kecil50,000
2625/09 03:07TIARXXmurni besar50,000
2725/09 03:07DEDENHOKI5balak200,000
2825/09 03:07JAL3434balak200,000
2925/09 03:07NINDY0420murni kecil25,000
3025/09 03:06SANGGINGbalak200,000
3125/09 03:06MANJ4D111balak100,000
3225/09 03:06MUQXOBYCRDmurni kecil25,000
3325/09 03:06ALIN83murni besar50,000
3425/09 03:06BL4CKB0Ymurni kecil50,000
3525/09 03:06BIUK55murni besar50,000
3625/09 03:06ETOT11murni kecil50,000
3725/09 03:06LEO34murni kecil50,000
3825/09 03:06AMB881821murni kecil50,000
3925/09 03:06UGIX1988murni kecil50,000
4025/09 03:06ZOELFEmurni kecil50,000
4125/09 03:06SARTANGmurni kecil25,000
4225/09 03:06BROCO37murni kecil50,000
4325/09 03:06YOU136murni besar5,000
4425/09 03:06BOCAHNEKAmurni kecil50,000
4525/09 03:06HOKI_LDmurni kecil25,000
4625/09 03:05WIDIANTARAmurni besar25,000
4725/09 03:05KARCE9009murni kecil50,000
4825/09 03:05ANOMAN99murni kecil25,000
4925/09 03:05UCHOK133murni kecil50,000
5025/09 03:05WIN343murni kecil50,000